Satellite-Ground Cal/Val Site Overpasses Predictions

Prediction of Satellite NPP Overpassing Cal/Val Site: Antarctic Dome C

Ground Cal/Val Site Location: Latitude: -75.10, Longitude: 123.35; Satellite-Ground Site NADIR distance within 100 km.

Table of predicted overpasses for the next 14.0 days since TLE Epoch: 7/28/2013
Interval Starting Time Ending Time Minimum Distance Time Minimum Distance (km)
1 07/29/2013 14:54:42 07/29/2013 14:55:10 07/29/2013 14:54:56 23.17
2 07/30/2013 14:36:01 07/30/2013 14:36:17 07/30/2013 14:36:09 83.67
3 07/31/2013 07:37:35 07/31/2013 07:38:03 07/31/2013 07:37:49 32.67
4 08/01/2013 07:18:51 08/01/2013 07:19:09 08/01/2013 07:19:00 77.28
5 08/03/2013 15:01:09 08/03/2013 15:01:32 08/03/2013 15:01:20 60.63
6 08/04/2013 14:42:20 08/04/2013 14:42:45 08/04/2013 14:42:33 48.50
7 08/05/2013 07:44:01 08/05/2013 07:44:22 08/05/2013 07:44:12 68.33
8 08/06/2013 07:25:11 08/06/2013 07:25:38 08/06/2013 07:25:24 39.53
9 08/08/2013 15:07:42 08/08/2013 15:07:46 08/08/2013 15:07:44 98.75
10 08/09/2013 14:48:41 08/09/2013 14:49:10 08/09/2013 14:48:55 12.40


NCC Satellite Cal/Val Overpasses Prediction Service
